This is the latest recevied weather packets stored in our database for station/object N9BSW. If no packets are shown the sender has not sent any weather packets the latest 10 day(s).
| Time | Temp. | Humidity | Pressure | Rain* | Wind** | Luminosity | Snow |
|---|---|---|---|---|---|---|---|
| 1777961322 | 15.56° C | 85% | 1006.8 hPa | 0 mm | - | 0 W/m² | - |
| 1777961018 | 16.11° C | 82% | 1006.9 hPa | 0 mm | - | 0 W/m² | - |
| 1777960714 | 16.11° C | 79% | 1007.6 hPa | 0 mm | - | 0 W/m² | - |
| 1777960410 | 16.67° C | 78% | 1007.1 hPa | 0 mm | - | 0 W/m² | - |
| 1777960108 | 17.22° C | 73% | 1007.1 hPa | 0 mm | - | 0 W/m² | - |
| 1777959805 | 18.33° C | 69% | 1006.7 hPa | 0 mm | - | 0 W/m² | - |
| 1777959503 | 18.33° C | 65% | 1006.5 hPa | 0 mm | - | 0 W/m² | - |
| 1777959200 | 18.33° C | 61% | 1006.2 hPa | 0 mm | - | 0 W/m² | - |
| 1777958897 | 18.89° C | 62% | 1005.8 hPa | 0 mm | - | 0 W/m² | - |
| 1777958594 | 19.44° C | 57% | 1006 hPa | 0 mm | - | 0 W/m² | - |
| 1777958290 | 19.44° C | 55% | 1005.9 hPa | 0 mm | - | 0 W/m² | - |
| 1777957988 | 19.44° C | 53% | 1005.6 hPa | 0 mm | - | 0 W/m² | - |
| 1777957686 | 20° C | 53% | 1005.3 hPa | 0 mm | - | 0 W/m² | - |
| 1777957385 | 20° C | 51% | 1005.1 hPa | 0 mm | - | 0 W/m² | - |
| 1777957080 | 20.56° C | 50% | 1005 hPa | 0 mm | - | 0 W/m² | - |
| 1777956778 | 20° C | 49% | 1005.1 hPa | 0 mm | - | 0 W/m² | - |
| 1777956474 | 20° C | 50% | 1005 hPa | 0 mm | - | 0 W/m² | - |
| 1777956171 | 20° C | 50% | 1005 hPa | 0 mm | - | 0 W/m² | - |
| 1777955868 | 20.56° C | 49% | 1004.7 hPa | 0 mm | - | 0 W/m² | - |
| 1777955564 | 20.56° C | 48% | 1004.5 hPa | 0 mm | - | 0 W/m² | - |
| 1777955260 | 20.56° C | 48% | 1003.9 hPa | 0 mm | - | 0 W/m² | - |
| 1777954957 | 20° C | 49% | 1004 hPa | 0 mm | - | 0 W/m² | - |
| 1777954654 | 20° C | 49% | 1003.8 hPa | 0 mm | - | 0 W/m² | - |
| 1777954351 | 20.56° C | 48% | 1004.1 hPa | 0 mm | - | 0 W/m² | - |
| 1777954049 | 20.56° C | 49% | 1003.9 hPa | 0 mm | - | 0 W/m² | - |
* Rain latest hour (hover to see other rain measurements)
** Current wind speed in m/s (hover to see current wind gust speed)